User: anonymous   Login
Location: Hancock Field Station
(44.9202°N, 120.4259°W)
Time: 10:29:32
(UTC-07:00)
Language:

Cosmos 1707 - Orbit

View from above orbital plane
View from above orbital plane
View from above satellite
View from above satellite

Ground track
Ground track

The orbit data is extracted from the following two-line orbital elements,

1 16326U 85113A   15186.13445322  .00001854  00000-0  10818-3 0  9990
2 16326 082.5135 187.9311 0010071 237.2069 122.8191 15.11341797609561
Epoch (UTC): 05 July 2015 03:13:36
Eccentricity: 0.0010071
inclination: 82.5135°
perigee height: 525 km
apogee height: 539 km
right ascension of ascending node: 187.9311°
argument of perigee: 237.2069°
revolutions per day: 15.11341797
mean anomaly at epoch: 122.8191°
orbit number at epoch: 60956

The dashed part of the orbit path shows where the satellite is in the earth's shadow,  

DLR